QPF
0.00 0.00 0.00 0.00 0.00 0.00 0.00 0.00 0.02 0.02 0.02 0.02 0.01 0.02 0.01 0.02 0.03 0.04 0.00 0.00 0.00 0.00 0.00 0.02 0.00 0.01 0.00 0.00 0.00 0.00 0.00 0.00 0.01 0.02 0.03 0.03 0.03 0.02 0.01 0.00 0.00 0.01 0.02
0.00 0.00 0.00 0.00 0.00 0.00 0.00 0.00 0.00 0.00 0.01 0.02 0.07 0.08 0.05 0.02 0.03 0.04 0.00 0.00 0.02 0.00 0.00 0.01 0.00 0.00 0.00 0.00 0.00 0.00 0.00 0.00 0.01 0.02 0.01 0.01 0.01 0.01 0.01 0.03 0.03 0.17 0.08
0.00 0.00 0.00 0.00 0.00 0.00 0.00 0.00 0.00 0.09 0.13 0.06 0.04 0.01 0.06 0.04 0.06 0.03 0.00 0.00 0.00 0.00 0.00 0.00 0.00 0.00 0.00 0.00 0.00 0.00 0.00 0.01 0.01 0.01 0.00 0.00 0.00 0.01 0.01 0.05 0.15 0.20 0.07
0.00 0.00 0.00 0.00 0.00 0.00 0.00 0.00 0.02 0.11 0.07 0.02 0.00 0.00 0.00 0.04 0.06 0.04 0.00 0.00 0.00 0.00 0.00 0.00 0.00 0.00 0.00 0.00 0.00 0.00 0.00 0.00 0.00 0.00 0.01 0.00 0.00 0.01 0.04 0.05 0.04 0.03 0.01
0.00 0.00 0.00 0.00 0.00 0.00 0.00 0.00 0.00 0.03 0.01 0.00 0.00 0.00 0.00 0.02 0.04 0.01 0.00 0.02 0.02 0.01 0.01 0.00 0.00 0.00 0.00 0.00 0.00 0.00 0.00 0.00 0.00 0.00 0.01 0.01 0.02 0.02 0.03 0.02 0.01 0.00 0.01
0.00 0.00 0.00 0.00 0.00 0.00 0.00 0.00 0.01 0.01 0.01 0.01 0.02 0.02 0.01 0.02 0.03 0.03 0.00 0.01 0.01 0.00 0.04 0.02 0.00 0.00 0.00 0.00 0.00 0.00 0.00 0.00 0.00 0.00 0.00 0.01 0.01 0.01 0.00 0.00 0.00 0.00 0.00
0.00 0.00 0.00 0.00 0.00 0.00 0.00 0.00 0.00 0.01 0.00 0.01 0.02 0.02 0.02 0.02 0.01 0.00 0.00 0.00 0.00 0.00 0.05 0.01 0.00 0.00 0.00 0.00 0.00 0.00 0.00 0.01 0.01 0.00 0.00 0.00 0.00 0.00 0.00 0.00 0.00 0.00 0.00
0.00 0.00 0.00 0.00 0.00 0.00 0.00 0.00 0.00 0.00 0.00 0.00 0.00 0.02 0.02 0.03 0.02 0.00 0.00 0.00 0.00 0.00 0.00 0.02 0.00 0.00 0.00 0.00 0.01 0.00 0.03 0.05 0.04 0.00 0.00 0.00 0.00 0.00 0.00 0.00 0.00 0.00 0.00
0.00 0.00 0.00 0.00 0.00 0.00 0.00 0.00 0.00 0.00 0.00 0.00 0.00 0.01 0.02 0.01 0.04 0.00 0.00 0.00 0.00 0.00 0.00 0.01 0.00 0.00 0.00 0.00 0.00 0.00 0.00 0.00 0.03 0.03 0.01 0.00 0.00 0.00 0.00 0.00 0.00 0.00 0.00
0.00 0.00 0.00 0.00 0.00 0.00 0.00 0.00 0.00 0.00 0.00 0.00 0.01 0.01 0.03 0.06 0.04 0.00 0.00 0.00 0.00 0.00 0.00 0.00 0.00 0.00 0.00 0.00 0.00 0.00 0.00 0.00 0.00 0.00 0.00 0.00 0.00 0.00 0.00 0.00 0.00 0.00 0.00
0.00 0.00 0.00 0.00 0.00 0.00 0.00 0.00 0.00 0.03 0.00 0.00 0.00 0.00 0.05 0.09 0.02 0.00 0.00 0.00 0.00 0.00 0.00 0.00 0.00 0.00 0.00 0.00 0.00 0.00 0.00 0.00 0.00 0.00 0.00 0.00 0.00 0.00 0.00 0.00 0.00 0.00 0.00
0.00 0.00 0.00 0.00 0.00 0.00 0.00 0.00 0.00 0.02 0.00 0.00 0.00 0.00 0.01 0.02 0.03 0.00 0.00 0.00 0.00 0.00 0.00 0.00 0.00 0.00 0.00 0.00 0.00 0.00 0.00 0.00 0.00 0.00 0.00 0.00 0.00 0.00 0.00 0.00 0.00 0.00 0.00
0.00 0.00 0.00 0.00 0.00 0.00 0.00 0.00 0.00 0.01 0.00 0.00 0.00 0.00 0.02 0.02 0.00 0.00 0.00 0.00 0.00 0.00 0.00 0.00 0.00 0.00 0.00 0.00 0.00 0.00 0.00 0.00 0.00 0.00 0.00 0.00 0.00 0.00 0.00 0.00 0.00 0.00 0.00
0.00 0.00 0.00 0.00 0.00 0.00 0.00 0.00 0.00 0.00 0.00 0.00 0.00 0.00 0.02 0.05 0.00 0.00 0.00 0.00 0.00 0.00 0.00 0.00 0.00 0.00 0.00 0.00 0.00 0.00 0.00 0.00 0.00 0.00 0.00 0.00 0.00 0.00 0.00 0.00 0.00 0.00 0.00
0.00 0.00 0.00 0.00 0.00 0.00 0.00 0.00 0.00 0.00 0.00 0.00 0.00 0.00 0.00 0.01 0.01 0.01 0.00 0.00 0.00 0.00 0.00 0.00 0.00 0.00 0.00 0.00 0.00 0.00 0.00 0.00 0.00 0.00 0.00 0.00 0.00 0.00 0.00 0.00 0.00 0.00 0.00
0.00 0.00 0.00 0.00 0.00 0.00 0.00 0.00 0.01 0.02 0.01 0.01 0.00 0.00 0.00 0.00 0.00 0.01 0.01 0.00 0.00 0.00 0.00 0.00 0.00 0.00 0.00 0.00 0.00 0.00 0.00 0.00 0.00 0.00 0.00 0.00 0.00 0.00 0.00 0.00 0.00 0.00 0.00
0.00 0.00 0.00 0.00 0.00 0.00 0.00 0.00 0.00 0.01 0.00 0.00 0.00 0.00 0.00 0.00 0.00 0.00 0.00 0.00 0.00 0.00 0.00 0.00 0.00 0.00 0.00 0.00 0.00 0.00 0.00 0.00 0.00 0.00 0.00 0.00 0.00 0.00 0.00 0.00 0.00 0.00 0.00
0.00 0.00 0.00 0.00 0.00 0.00 0.00 0.00 0.00 0.00 0.00 0.00 0.00 0.00 0.00 0.00 0.00 0.00 0.00 0.00 0.00 0.00 0.00 0.00 0.00 0.00 0.00 0.00 0.00 0.00 0.00 0.00 0.00 0.00 0.00 0.00 0.00 0.00 0.00 0.00 0.00 0.00 0.00
0.00 0.00 0.00 0.00 0.00 0.00 0.00 0.00 0.00 0.00 0.00 0.00 0.00 0.00 0.00 0.00 0.00 0.00 0.00 0.00 0.00 0.00 0.00 0.00 0.00 0.00 0.00 0.00 0.00 0.00 0.00 0.00 0.00 0.00 0.00 0.00 0.00 0.00 0.00 0.00 0.00 0.00 0.00
0.00 0.00 0.00 0.00 0.00 0.00 0.00 0.00 0.00 0.00 0.00 0.00 0.00 0.00 0.00 0.00 0.00 0.00 0.00 0.00 0.00 0.00 0.00 0.00 0.00 0.00 0.00 0.00 0.00 0.00 0.00 0.00 0.00 0.00 0.00 0.00 0.00 0.00 0.00 0.00 0.00 0.00 0.00
0.00 0.00 0.00 0.00 0.00 0.00 0.00 0.00 0.00 0.00 0.00 0.00 0.00 0.00 0.00 0.00 0.00 0.00 0.00 0.00 0.00 0.00 0.00 0.00 0.00 0.00 0.00 0.00 0.00 0.00 0.00 0.00 0.00 0.00 0.00 0.00 0.00 0.00 0.00 0.00 0.00 0.00 0.00
0.00 0.00 0.00 0.00 0.00 0.00 0.00 0.00 0.00 0.00 0.00 0.00 0.00 0.00 0.00 0.00 0.00 0.00 0.00 0.00 0.00 0.00 0.00 0.00 0.00 0.00 0.00 0.00 0.00 0.00 0.00 0.00 0.00 0.00 0.00 0.00 0.00 0.00 0.00 0.00 0.00 0.00 0.00
0.00 0.00 0.00 0.00 0.00 0.00 0.00 0.00 0.00 0.00 0.00 0.00 0.00 0.00 0.00 0.00 0.00 0.00 0.00 0.00 0.00 0.00 0.00 0.00 0.00 0.00 0.00 0.02 0.00 0.00 0.00 0.00 0.00 0.00 0.00 0.00 0.00 0.00 0.00 0.00 0.00 0.00 0.00
0.00 0.00 0.00 0.00 0.00 0.00 0.00 0.00 0.00 0.00 0.00 0.00 0.00 0.00 0.00 0.00 0.00 0.00 0.00 0.00 0.00 0.00 0.00 0.00 0.00 0.00 0.00 0.00 0.00 0.01 0.00 0.00 0.00 0.00 0.00 0.00 0.00 0.00 0.00 0.00 0.00 0.00 0.00
0.00 0.00 0.00 0.00 0.00 0.00 0.00 0.00 0.00 0.00 0.00 0.00 0.00 0.00 0.00 0.00 0.00 0.00 0.00 0.00 0.00 0.00 0.00 0.00 0.00 0.00 0.00 0.00 0.00 0.00 0.00 0.00 0.00 0.00 0.00 0.00 0.00 0.00 0.00 0.00 0.00 0.00 0.00
0.00 0.00 0.00 0.00 0.00 0.00 0.00 0.00 0.00 0.00 0.00 0.00 0.00 0.00 0.00 0.00 0.00 0.00 0.00 0.00 0.00 0.00 0.00 0.00 0.00 0.00 0.00 0.00 0.00 0.00 0.00 0.00 0.00 0.00 0.00 0.00 0.00 0.00 0.00 0.00 0.00 0.00 0.00
MSLP
1018.73 1018.59 1018.50 1018.20 1017.82 1017.60 1017.34 1016.97 1016.56 1016.04 1015.73 1015.69 1015.80 1015.71 1015.71 1015.76 1015.73 1015.85 1015.84 1015.81 1015.79 1015.63 1015.26 1015.32 1015.19 1015.05 1014.95 1014.96 1014.93 1015.07 1015.18 1015.13 1014.83 1014.32 1014.00 1013.63 1013.01 1012.77 1012.79 1013.12 1013.36 1013.49 1013.63
1018.66 1018.48 1018.31 1018.01 1017.80 1017.39 1017.01 1016.45 1015.95 1015.46 1015.15 1015.07 1015.22 1015.34 1015.34 1015.38 1015.37 1015.35 1015.33 1015.34 1015.42 1015.20 1014.99 1015.06 1014.93 1014.75 1014.70 1014.56 1014.51 1014.63 1014.50 1014.27 1014.32 1014.19 1014.18 1013.97 1013.53 1013.19 1013.14 1013.45 1013.62 1013.81 1013.76
1018.37 1018.27 1018.16 1017.96 1017.71 1017.19 1016.75 1016.17 1015.55 1015.09 1014.60 1014.49 1014.73 1014.83 1015.00 1014.99 1015.06 1014.85 1014.80 1015.00 1014.98 1014.80 1014.86 1014.78 1014.72 1014.63 1014.53 1014.38 1014.35 1014.35 1014.11 1013.91 1013.98 1013.97 1014.10 1014.22 1014.13 1013.71 1013.72 1014.02 1014.33 1014.15 1014.43
1018.70 1018.13 1017.98 1017.69 1017.26 1016.74 1016.26 1015.72 1015.21 1014.79 1014.70 1014.62 1014.58 1014.57 1014.64 1014.39 1014.78 1014.57 1014.50 1014.62 1014.49 1014.53 1014.60 1014.47 1014.45 1014.46 1014.34 1014.29 1014.26 1014.14 1014.19 1013.90 1013.73 1013.50 1013.69 1014.28 1014.18 1014.22 1014.11 1014.19 1014.78 1015.18 1015.51
1018.62 1018.17 1017.87 1017.40 1016.93 1016.43 1015.92 1015.43 1014.91 1014.49 1014.35 1014.29 1014.26 1014.24 1014.14 1014.19 1014.31 1014.17 1014.17 1014.34 1014.54 1014.58 1014.48 1014.32 1014.16 1014.34 1014.05 1014.06 1014.16 1014.31 1014.32 1013.85 1013.61 1013.23 1013.68 1014.13 1014.20 1014.24 1014.59 1015.05 1015.46 1016.08 1016.73
1018.59 1018.36 1017.81 1017.29 1016.84 1016.33 1015.73 1015.33 1014.91 1014.46 1014.15 1014.06 1013.79 1013.62 1013.69 1013.79 1013.95 1013.84 1014.07 1014.29 1014.36 1014.31 1014.22 1014.40 1014.13 1014.19 1014.01 1014.03 1013.94 1013.99 1014.30 1014.12 1013.88 1013.99 1013.82 1014.15 1014.64 1015.02 1015.38 1015.69 1016.07 1016.81 1017.56
1018.68 1018.32 1017.79 1017.29 1016.86 1016.27 1015.63 1015.21 1014.81 1014.42 1014.04 1013.82 1013.55 1013.23 1013.11 1013.31 1013.39 1013.45 1013.77 1013.98 1014.16 1014.35 1014.46 1014.47 1014.09 1014.14 1014.27 1014.06 1014.18 1014.23 1014.27 1014.23 1014.04 1014.17 1014.47 1014.70 1014.95 1015.26 1015.59 1016.19 1016.45 1016.91 1017.49
1018.62 1018.17 1017.66 1017.26 1016.80 1016.18 1015.70 1015.21 1014.54 1014.03 1013.69 1013.58 1013.51 1013.30 1013.11 1012.99 1013.06 1013.19 1013.53 1013.83 1013.94 1014.22 1014.34 1014.40 1014.17 1014.29 1014.33 1014.23 1014.50 1014.39 1014.49 1014.36 1014.16 1014.43 1014.57 1014.82 1014.92 1015.24 1015.49 1015.87 1016.32 1016.83 1017.20
1018.53 1018.07 1017.67 1017.20 1016.72 1016.29 1015.78 1015.23 1014.51 1014.06 1013.57 1013.34 1013.21 1013.07 1013.14 1012.96 1012.96 1013.16 1013.43 1013.90 1014.10 1014.10 1014.14 1014.06 1014.16 1014.48 1014.51 1014.36 1014.33 1014.69 1014.85 1014.72 1014.48 1014.44 1014.66 1014.92 1014.96 1015.09 1015.50 1016.06 1016.80 1017.26 1017.83
1018.55 1018.13 1017.64 1017.11 1016.76 1016.33 1015.86 1015.20 1014.44 1013.93 1013.44 1012.98 1012.75 1012.90 1012.62 1012.45 1012.87 1012.94 1013.31 1013.80 1014.18 1014.25 1014.21 1014.19 1014.08 1014.32 1014.51 1014.41 1014.32 1014.69 1015.09 1015.05 1014.88 1014.93 1015.07 1015.19 1015.14 1015.29 1015.41 1015.59 1016.49 1017.33 1017.78
1018.42 1018.00 1017.56 1016.99 1016.61 1016.13 1015.78 1015.15 1014.54 1014.08 1013.46 1013.06 1012.70 1012.62 1012.65 1012.65 1012.70 1012.90 1013.18 1013.75 1014.02 1014.04 1014.17 1014.21 1013.90 1014.11 1014.50 1014.53 1014.51 1014.78 1014.97 1015.08 1015.20 1015.38 1015.52 1015.53 1015.62 1015.72 1015.85 1015.91 1016.07 1016.32 1016.94
1018.35 1018.00 1017.64 1017.17 1016.67 1016.14 1015.75 1015.24 1014.58 1014.15 1013.69 1013.26 1012.89 1012.65 1012.41 1012.23 1012.43 1012.75 1013.12 1013.68 1013.87 1013.80 1014.07 1014.00 1014.10 1014.19 1014.44 1014.59 1014.76 1014.94 1015.06 1015.26 1015.60 1015.88 1016.07 1016.10 1016.15 1016.23 1016.13 1016.03 1016.01 1016.06 1016.07
1018.36 1018.00 1017.67 1017.21 1016.70 1016.13 1015.74 1015.28 1014.81 1014.38 1013.93 1013.71 1013.49 1013.10 1012.77 1012.42 1012.58 1012.90 1013.08 1013.43 1013.71 1013.88 1013.87 1013.92 1013.88 1014.09 1014.34 1014.62 1014.80 1015.11 1015.38 1015.63 1015.81 1016.03 1016.17 1016.05 1015.84 1015.95 1016.15 1016.24 1016.15 1016.19 1016.26
1018.21 1017.92 1017.64 1017.28 1016.84 1016.28 1015.52 1015.21 1014.87 1014.51 1014.21 1014.19 1014.06 1013.64 1013.04 1012.71 1012.97 1013.13 1013.24 1013.29 1013.58 1013.84 1013.91 1013.90 1014.03 1014.26 1014.62 1014.87 1015.13 1015.16 1015.35 1015.63 1015.85 1015.98 1016.02 1015.75 1015.50 1015.57 1016.02 1016.19 1016.49 1016.66 1016.89
1018.02 1017.85 1017.56 1017.21 1016.82 1016.39 1015.79 1015.29 1014.95 1014.71 1014.56 1014.41 1014.37 1014.22 1013.68 1013.10 1013.44 1013.47 1013.33 1013.29 1013.47 1013.71 1013.98 1014.07 1014.38 1014.68 1014.95 1015.24 1015.30 1015.29 1015.33 1015.66 1015.98 1016.01 1015.96 1015.70 1015.51 1015.63 1015.86 1016.03 1016.26 1016.77 1016.92
1017.78 1017.74 1017.54 1017.20 1016.80 1016.35 1015.92 1015.42 1014.96 1014.83 1014.66 1014.52 1014.36 1014.41 1014.13 1013.98 1013.41 1013.65 1013.64 1013.45 1013.49 1013.74 1013.98 1014.14 1014.54 1014.70 1014.88 1014.97 1015.04 1015.04 1015.05 1015.08 1015.25 1015.51 1015.86 1015.69 1015.55 1015.63 1015.75 1015.91 1016.19 1016.41 1016.58
1017.49 1017.50 1017.37 1017.14 1016.76 1016.36 1016.10 1015.78 1015.55 1014.94 1014.66 1014.43 1014.22 1014.26 1014.12 1013.82 1013.54 1013.72 1013.84 1013.81 1013.72 1013.61 1013.86 1013.99 1014.28 1014.31 1014.41 1014.41 1014.42 1014.44 1014.43 1014.13 1014.15 1014.69 1015.03 1015.48 1015.74 1015.67 1015.53 1015.66 1015.81 1016.06 1016.22
1017.24 1017.25 1017.18 1016.97 1016.72 1016.26 1015.97 1015.88 1015.63 1015.46 1015.12 1014.50 1014.12 1014.30 1013.97 1013.82 1013.37 1013.65 1013.65 1013.53 1013.87 1013.87 1013.86 1013.86 1013.86 1014.05 1014.01 1013.84 1013.49 1013.54 1013.46 1013.61 1013.72 1013.94 1014.37 1014.55 1014.79 1015.08 1015.33 1015.24 1015.31 1015.45 1015.55
1017.01 1016.94 1016.84 1016.70 1016.46 1016.27 1016.20 1016.04 1015.80 1015.57 1015.42 1015.11 1014.73 1014.20 1013.94 1013.72 1013.50 1013.42 1013.27 1013.56 1013.72 1013.66 1013.64 1013.50 1013.48 1013.60 1013.43 1013.37 1013.01 1012.88 1012.85 1013.01 1013.14 1013.37 1013.73 1014.04 1014.21 1014.64 1014.79 1014.72 1014.74 1014.82 1014.96
1016.78 1016.54 1016.37 1016.38 1016.23 1016.11 1016.04 1015.99 1015.81 1015.62 1015.52 1015.31 1015.07 1014.79 1014.52 1014.10 1013.72 1013.29 1013.14 1013.22 1013.36 1013.36 1013.18 1013.05 1013.01 1013.03 1013.01 1013.09 1013.21 1013.13 1012.96 1012.38 1012.80 1013.10 1013.27 1013.40 1013.64 1013.96 1014.12 1014.17 1014.32 1014.46 1014.55
1016.38 1016.33 1016.16 1016.19 1016.10 1015.87 1015.87 1015.87 1015.69 1015.61 1015.44 1015.22 1015.01 1014.70 1014.63 1014.46 1014.13 1013.73 1013.43 1013.13 1012.88 1012.88 1012.68 1012.61 1012.81 1012.82 1012.86 1012.85 1012.81 1012.77 1012.49 1012.45 1012.74 1012.74 1012.98 1013.16 1013.21 1013.33 1013.35 1013.55 1013.78 1013.89 1013.96
1015.86 1015.88 1015.85 1015.83 1015.63 1015.55 1015.55 1015.50 1015.46 1015.36 1015.29 1015.07 1014.71 1014.42 1014.21 1014.25 1014.26 1013.98 1013.57 1013.44 1013.30 1013.06 1012.92 1012.82 1012.81 1012.67 1012.56 1012.61 1012.63 1012.69 1012.55 1012.59 1012.71 1012.49 1012.32 1012.47 1012.61 1012.71 1012.87 1013.28 1013.30 1013.33 1013.49
1015.25 1015.34 1015.32 1015.35 1015.28 1015.13 1015.14 1015.01 1015.02 1014.94 1014.76 1014.68 1014.56 1014.39 1014.21 1014.11 1013.96 1013.79 1013.55 1013.33 1013.26 1013.09 1012.92 1012.73 1012.74 1012.62 1012.26 1012.28 1012.19 1012.37 1012.47 1012.62 1012.41 1012.65 1012.22 1012.23 1012.42 1012.25 1012.29 1012.52 1012.60 1012.75 1012.92
1014.52 1014.65 1014.69 1014.62 1014.63 1014.65 1014.58 1014.48 1014.33 1014.21 1014.06 1013.99 1013.95 1013.86 1013.75 1013.61 1013.46 1013.31 1013.20 1013.16 1013.09 1013.00 1012.82 1012.63 1012.50 1012.38 1012.24 1012.29 1012.46 1012.51 1012.81 1012.88 1012.40 1012.73 1012.87 1012.40 1012.25 1012.32 1012.11 1012.09 1012.46 1012.18 1012.56
1013.81 1013.99 1014.02 1013.98 1013.88 1013.79 1013.75 1013.63 1013.50 1013.38 1013.30 1013.27 1013.26 1013.21 1013.03 1012.95 1012.94 1012.81 1012.75 1012.71 1012.63 1012.54 1012.41 1012.28 1012.16 1011.98 1011.94 1011.95 1012.14 1012.33 1012.48 1012.55 1012.81 1013.25 1012.96 1012.63 1012.56 1012.11 1011.96 1011.88 1011.83 1012.15 1012.27
1012.84 1012.99 1013.11 1013.14 1013.12 1012.91 1012.84 1012.78 1012.64 1012.45 1012.34 1012.20 1012.23 1012.29 1012.28 1012.22 1012.06 1012.07 1012.06 1012.13 1012.16 1012.11 1012.01 1011.92 1011.73 1011.52 1011.57 1011.81 1012.10 1012.45 1012.75 1012.82 1012.77 1012.87 1012.69 1012.45 1012.37 1012.08 1011.91 1011.81 1011.49 1011.43 1011.70
Thickness
5558 5550 5543 5537 5532 5525 5522 5519 5518 5520 5520 5518 5517 5519 5520 5521 5524 5524 5525 5526 5528 5530 5534 5535 5536 5536 5537 5533 5530 5525 5520 5518 5520 5520 5521 5524 5531 5534 5537 5540 5543 5547 5549
5549 5541 5534 5528 5521 5517 5515 5514 5514 5515 5515 5514 5512 5512 5515 5518 5521 5523 5525 5526 5527 5530 5533 5533 5535 5536 5535 5534 5532 5527 5523 5523 5520 5519 5519 5520 5525 5532 5536 5538 5539 5539 5541
5542 5535 5526 5519 5513 5511 5509 5509 5510 5511 5511 5511 5511 5511 5512 5516 5519 5522 5525 5525 5527 5530 5530 5532 5533 5533 5535 5534 5532 5528 5527 5527 5524 5523 5523 5520 5523 5531 5535 5534 5534 5538 5538
5532 5529 5521 5515 5511 5510 5508 5508 5509 5509 5507 5508 5509 5510 5512 5516 5516 5521 5525 5525 5528 5529 5529 5532 5532 5531 5534 5534 5532 5530 5528 5530 5530 5534 5534 5527 5530 5531 5535 5539 5538 5537 5537
5524 5521 5514 5510 5508 5508 5506 5506 5508 5508 5508 5508 5509 5510 5513 5515 5517 5521 5524 5524 5524 5526 5528 5531 5534 5531 5536 5535 5532 5529 5528 5532 5531 5539 5536 5534 5537 5536 5538 5538 5537 5535 5533
5516 5511 5507 5505 5503 5503 5502 5502 5503 5506 5506 5506 5509 5513 5515 5518 5518 5521 5521 5521 5525 5526 5529 5529 5533 5532 5537 5535 5536 5534 5531 5532 5534 5536 5539 5542 5539 5537 5538 5537 5535 5533 5532
5509 5505 5502 5499 5496 5497 5497 5498 5499 5502 5505 5506 5509 5513 5517 5518 5520 5522 5521 5522 5523 5524 5525 5528 5533 5532 5533 5535 5536 5537 5537 5537 5539 5540 5541 5540 5541 5540 5540 5537 5537 5535 5534
5502 5498 5496 5492 5490 5489 5490 5492 5497 5501 5504 5506 5507 5511 5514 5519 5520 5522 5521 5521 5524 5524 5525 5526 5531 5531 5532 5535 5535 5538 5538 5540 5544 5543 5543 5544 5545 5546 5548 5547 5546 5547 5546
5495 5491 5488 5485 5483 5481 5482 5484 5490 5495 5501 5505 5507 5510 5512 5516 5518 5520 5520 5519 5521 5523 5524 5529 5530 5530 5530 5534 5538 5538 5539 5541 5544 5548 5549 5549 5552 5553 5553 5552 5547 5547 5545
5486 5481 5478 5477 5474 5472 5473 5477 5483 5489 5497 5504 5508 5509 5514 5519 5517 5519 5519 5518 5518 5520 5523 5526 5530 5531 5530 5534 5539 5538 5536 5541 5545 5546 5549 5551 5555 5557 5558 5559 5553 5549 5547
5478 5473 5470 5470 5467 5465 5465 5469 5475 5482 5491 5498 5505 5509 5511 5514 5516 5517 5518 5517 5518 5522 5522 5526 5532 5532 5532 5535 5538 5539 5541 5542 5546 5548 5550 5553 5555 5556 5558 5559 5560 5561 5555
5471 5466 5461 5458 5457 5456 5456 5460 5468 5474 5483 5491 5499 5506 5511 5516 5518 5517 5517 5516 5518 5522 5522 5526 5530 5531 5533 5537 5539 5540 5542 5544 5544 5547 5550 5553 5555 5556 5558 5561 5563 5564 5566
5462 5456 5451 5447 5445 5444 5445 5448 5456 5464 5474 5482 5490 5498 5505 5513 5515 5517 5517 5516 5517 5521 5524 5526 5530 5532 5534 5536 5540 5540 5542 5543 5545 5547 5549 5553 5557 5560 5559 5560 5562 5563 5564
5456 5449 5441 5434 5429 5429 5435 5438 5444 5455 5464 5471 5479 5490 5500 5510 5511 5513 5515 5517 5517 5519 5523 5528 5529 5532 5533 5535 5537 5540 5543 5543 5545 5547 5549 5553 5558 5560 5559 5559 5558 5557 5557
5451 5441 5431 5422 5415 5413 5419 5425 5433 5443 5454 5463 5471 5481 5493 5504 5505 5508 5513 5517 5518 5520 5522 5526 5528 5530 5531 5532 5536 5540 5542 5542 5543 5545 5549 5554 5559 5558 5559 5559 5558 5555 5554
5448 5435 5421 5413 5403 5404 5405 5414 5424 5435 5447 5457 5467 5475 5486 5493 5501 5504 5509 5514 5518 5519 5522 5525 5526 5528 5531 5534 5537 5540 5544 5547 5548 5549 5548 5552 5556 5557 5558 5556 5555 5556 5554
5449 5433 5416 5404 5400 5399 5399 5408 5418 5434 5446 5459 5469 5475 5484 5492 5498 5502 5507 5511 5515 5520 5522 5525 5528 5533 5537 5540 5543 5543 5548 5553 5556 5553 5553 5551 5550 5552 5556 5558 5558 5556 5554
5453 5434 5417 5404 5398 5400 5405 5411 5422 5431 5446 5460 5471 5474 5485 5490 5499 5502 5507 5513 5515 5517 5520 5524 5530 5533 5536 5542 5549 5551 5554 5554 5556 5556 5555 5555 5555 5555 5554 5556 5557 5556 5555
5454 5441 5428 5414 5406 5406 5410 5418 5428 5440 5449 5460 5469 5480 5487 5493 5499 5504 5508 5512 5515 5519 5522 5526 5529 5532 5538 5542 5548 5552 5555 5556 5556 5556 5555 5555 5555 5552 5551 5553 5553 5552 5553
5461 5453 5443 5431 5422 5424 5427 5434 5442 5448 5454 5462 5469 5477 5484 5492 5500 5506 5511 5514 5515 5517 5523 5527 5531 5533 5536 5537 5539 5543 5548 5556 5555 5553 5553 5554 5553 5551 5551 5551 5549 5548 5546
5471 5465 5458 5450 5445 5447 5448 5450 5455 5458 5462 5468 5473 5480 5482 5489 5495 5501 5506 5512 5517 5520 5524 5527 5527 5530 5531 5534 5537 5540 5545 5549 5548 5550 5550 5549 5550 5550 5550 5548 5547 5545 5543
5482 5477 5471 5465 5463 5463 5464 5462 5463 5466 5468 5472 5477 5482 5484 5489 5492 5497 5502 5506 5509 5512 5515 5518 5520 5524 5527 5529 5531 5533 5537 5539 5540 5544 5546 5546 5546 5546 5545 5542 5541 5540 5537
5491 5486 5482 5477 5474 5473 5472 5472 5470 5471 5475 5476 5478 5480 5483 5486 5489 5493 5497 5502 5504 5507 5510 5513 5514 5516 5520 5522 5525 5527 5529 5530 5533 5533 5539 5539 5538 5540 5539 5538 5537 5537 5535
5498 5494 5489 5487 5483 5479 5477 5478 5478 5478 5479 5480 5481 5482 5484 5486 5488 5490 5492 5494 5496 5499 5502 5506 5509 5511 5514 5515 5516 5517 5516 5517 5523 5522 5523 5528 5531 5530 5532 5533 5530 5533 5530
5503 5498 5494 5491 5489 5486 5485 5484 5483 5483 5484 5484 5483 5483 5485 5486 5486 5488 5488 5490 5491 5493 5496 5499 5502 5505 5506 5509 5510 5511 5512 5513 5512 5511 5513 5516 5518 5523 5524 5525 5527 5525 5523
5507 5503 5500 5496 5493 5491 5489 5489 5489 5489 5488 5489 5488 5486 5485 5486 5488 5487 5487 5487 5487 5487 5490 5493 5496 5499 5501 5501 5501 5501 5501 5502 5503 5505 5507 5508 5510 5514 5515 5517 5520 5520 5519